User: anonymous   Login
Location: Theydon Bois
(51.6750°N, 0.1050°E)
Time: 05:08:10
(UTC+01:00)
Language:

Cosmos 1867 - Orbit

View from above orbital plane
View from above orbital plane
View from above satellite
View from above satellite

Ground track
Ground track

The orbit data is extracted from the following two-line orbital elements,

1 18187U 87060A   18227.13358245 -.00000113 +00000-0 -48257-5 0  9995
2 18187 065.0094 122.3437 0019364 279.0615 080.8278 14.31096989624438
Epoch (UTC): 15 August 2018 03:12:21
Eccentricity: 0.0019364
inclination: 65.0094°
perigee height: 774 km
apogee height: 802 km
right ascension of ascending node: 122.3437°
argument of perigee: 279.0615°
revolutions per day: 14.31096989
mean anomaly at epoch: 80.8278°
orbit number at epoch: 62443

The dashed part of the orbit path shows where the satellite is in the earth's shadow,  

DLR